This demonstration page uses our WeatherBlox Daily Observations layout. Learn more.

Left ArrowRight Arrow

53.62937, 11.41316

Hourly Observations for May 25, 2019

Temp ( °F °C ) Dew Point ( °F °C ) Humidity (%) Winds ( mph kmh ) Pressure ( in mb ) Visibility ( mi km ) Precip ( " mm )
6:50 am 06:50 Mostly Cloudy 52 11 45 7 77 77 W 5 7 29.94 1014 30 48 N/A
7:20 am 07:20 Mostly Cloudy 52 11 45 7 77 77 W 5 7 29.94 1014 30 48 N/A
7:50 am 07:50 Mostly Cloudy 52 11 45 7 77 77 W 6 9 29.94 1014 30 48 N/A
8:20 am 08:20 Mostly Cloudy 54 12 43 6 67 67 W 7 11 29.94 1014 30 48 N/A
8:50 am 08:50 Mostly Cloudy 54 12 45 7 72 72 W 8 13 29.94 1014 30 48 N/A
9:20 am 09:20 Mostly Cloudy 54 12 45 7 72 72 W 6 9 29.94 1014 30 48 N/A
9:50 am 09:50 Mostly Cloudy 54 12 45 7 72 72 W 7 11 29.94 1014 30 48 N/A
10:20 am 10:20 Mostly Cloudy 55 13 43 6 63 63 W 7 11 29.94 1014 30 48 N/A
10:50 am 10:50 Mostly Cloudy 55 13 45 7 67 67 W 8 13 29.97 1015 30 48 N/A
11:20 am 11:20 Mostly Cloudy 55 13 45 7 67 67 W 9 15 29.97 1015 30 48 N/A
11:50 am 11:50 Mostly Cloudy 55 13 45 7 67 67 W 9 15 29.97 1015 30 48 N/A
12:20 pm 12:20 Mostly Cloudy 57 14 45 7 63 63 W 8 13 29.97 1015 30 48 N/A
12:50 pm 12:50 Mostly Cloudy 57 14 45 7 63 63 W 10 17 29.97 1015 30 48 N/A
1:20 pm 13:20 Mostly Cloudy 57 14 45 7 63 63 W 9 15 29.97 1015 30 48 N/A
1:50 pm 13:50 Partly Cloudy 59 15 46 8 63 63 W 10 17 29.97 1015 30 48 N/A
2:20 pm 14:20 Partly Cloudy 61 16 46 8 59 59 W 12 19 29.97 1015 30 48 N/A
2:50 pm 14:50 Mostly Cloudy 59 15 46 8 63 63 W 10 17 29.97 1015 30 48 N/A
3:20 pm 15:20 Mostly Cloudy 59 15 45 7 59 59 W 8 13 29.97 1015 30 48 N/A
3:50 pm 15:50 Mostly Cloudy 61 16 45 7 55 55 W 14 22 29.97 1015 30 48 N/A
4:20 pm 16:20 Mostly Cloudy 57 14 45 7 63 63 W 12 19 29.97 1015 30 48 N/A
4:50 pm 16:50 Mostly Cloudy 59 15 45 7 59 59 W 10 17 29.97 1015 30 48 N/A
5:20 pm 17:20 Mostly Cloudy 59 15 45 7 59 59 W 10 17 29.97 1015 30 48 N/A
5:50 pm 17:50 Mostly Cloudy 59 15 43 6 55 55 WNW 7 11 29.97 1015 30 48 N/A
6:20 pm 18:20 Mostly Cloudy 57 14 43 6 59 59 W 9 15 29.97 1015 30 48 N/A
6:50 pm 18:50 Mostly Cloudy 55 13 45 7 67 67 W 9 15 29.97 1015 30 48 N/A
7:20 pm 19:20 Mostly Cloudy 55 13 45 7 67 67 W 8 13 29.97 1015 30 48 N/A
7:50 pm 19:50 Mostly Cloudy 55 13 45 7 67 67 W 8 13 29.97 1015 30 48 N/A
8:20 pm 20:20 Mostly Cloudy 55 13 43 6 63 63 W 6 9 29.97 1015 30 48 N/A
8:50 pm 20:50 Mostly Cloudy 54 12 45 7 72 72 W 7 11 29.97 1015 30 48 N/A

Powered by AerisWeather